Location: Tr�vern
(48.0333°N, 4.6000°W)
Time: 08:32:23
(UTC+00:00)

deb Kosmos-1763 - Pass Details

Date: 14 July 2020
Orbit: 464 x 480 km, 74.0° (Epoch: 05 August)

Event Time Altitude Azimuth Distance (km) Brightness Sun altitude
Exits shadow 03:23:19 14° 220° (SW) 1,394 5.7 -9.7°
Maximum altitude 03:26:15 53° 296° (WNW) 582 4.3 -9.3°
Drops below altitude 10° 03:29:48 10° 14° (NNE) 1,639 7.8 -8.9°
Sets 03:31:58 0° 19° (NNE) 2,524 9.1 -8.7°
